Weather in Popasna

Ukraine / Luhansk Region     48°38′01″N   38°22′35″E
temp.,
°C
wind,
m/s
gust,
m/s
humid.,
%
clouds,
%
prec.,
mm/h
press.,
hPa
HPBL,
m
22 april, thu
thu2200:00+9ssw387697 0.0 1019177
03:00+8ssw378814 0.1 1020153
06:00+7sw36925 0.0 1021129
09:00+13sw34655 0.0 1021647
12:00+16wsw344541 0.5 10211962
15:00+15s3449100 0.6 1021995
18:00+15sw2255100 0.1 1021383
21:00+11sw116334 0.1 102211
23 april, fri
fri2300:00+9sw227336 0.0 102219
03:00+8sw348260 0.0 102268
06:00+9sw368279 0.0 1022146
09:00+13sw466765 0.0 1021557
12:00+17sw464562 0.9 10202126
15:00+16sw3543100 0.9 10181622
18:00+16ssw474942 0.0 1017682
21:00+11ssw41165100 0.0 1017296
24 april, sat
sat2400:00+10ssw51269100 0.0 1016431
03:00+10ssw5973100 0.1 1015367
06:00+9ssw5127787 0.0 1014552
09:00+7wnw5889100 1.2 1015928
12:00+11w595294 0.8 10152031
15:00+13w8113996 0.8 10152472
18:00+11w6104632 0.0 10152253
21:00+6w511655 0.2 10181046
25 april, sun
sun2500:00+4w511655 0.0 1019662
03:00+4w696998 0.0 1020973
06:00+3w48775 0.0 1021335
09:00+7wnw57515 0.0 10211182
12:00+11w563898 0.0 10212237
15:00+12w453393 0.0 10202313
18:00+11w3336100 0.0 10192059
21:00+8ssw1148100 0.0 102010
26 april, mon
mon2600:00+7ssw2250100 0.0 101911
03:00+5ssw2254100 0.0 101918
06:00+5wsw2261100 0.0 101833
09:00+11ssw344634 0.0 1017707
12:00+14sw673651 0.0 10152100
15:00+11w9106888 0.3 10151326
18:00+8wnw69585 0.1 10161229
21:00+5wsw11744 0.1 101712